Theta_e
311 310 310 311 311 310 308 308 308 309 309 307 308 308 308 307 307 307 307 308 308 308 308 309 309 310 310 309 308 308 307 307 306 305 304 303 303 304 304 304 303 303 302 301 300 299 299 299 299 299 299 299 300 300 300 301 301 301 302 302 303 303 304 304 304 304 304 303 303 303 302 301 301 301 301 300 300 299 299 298 297 297 296 297 298 299
309 308 308 309 309 308 307 306 307 308 309 308 307 307 307 307 307 307 307 307 308 308 308 309 309 309 309 308 308 307 307 306 305 304 303 302 302 303 303 302 302 302 301 300 299 298 297 297 297 297 298 298 299 299 300 300 300 300 301 301 301 302 302 303 303 303 303 302 302 301 301 301 300 300 300 299 299 298 298 297 296 296 295 296 297 298
307 307 306 306 307 308 307 306 306 307 308 308 308 307 307 307 307 307 307 307 307 308 308 308 309 309 308 308 307 307 306 305 304 303 302 302 302 301 301 301 301 301 300 299 298 296 296 295 295 295 295 296 297 297 298 299 299 300 300 300 300 301 301 301 301 301 301 301 300 300 300 300 299 299 299 298 298 297 297 296 295 295 294 294 295 297
306 306 306 306 306 306 307 306 306 306 306 307 307 307 307 306 306 307 307 307 307 307 307 308 308 308 308 307 306 306 305 304 303 303 302 301 301 300 300 300 300 300 299 298 296 295 294 294 293 293 293 293 294 294 295 296 297 298 299 299 299 299 300 300 300 300 300 300 299 299 299 299 298 298 297 297 296 296 295 295 294 294 293 293 294 296
306 307 306 306 306 305 305 306 306 306 306 306 306 306 306 306 306 306 306 306 306 307 307 307 307 307 307 307 306 305 304 304 303 302 301 300 300 300 299 299 299 299 298 297 295 294 293 293 292 292 292 291 291 291 292 292 293 295 296 297 298 298 298 299 299 299 299 299 299 298 298 298 297 297 297 296 296 295 295 294 293 293 292 293 294 295
306 306 306 306 305 305 304 305 305 305 305 305 305 305 305 305 305 306 306 306 306 306 306 306 306 306 306 306 305 304 304 303 302 301 301 300 299 299 298 298 298 298 298 296 295 294 293 292 292 292 291 291 290 290 290 290 290 291 292 294 295 296 297 297 298 298 298 298 298 298 297 297 297 296 296 295 295 295 294 294 293 293 292 292 293 295
305 306 306 306 305 304 304 304 304 305 305 305 304 304 304 304 304 305 305 305 306 305 305 305 305 305 305 305 304 303 303 302 301 301 300 299 299 298 298 297 297 297 297 296 295 293 292 292 291 291 290 290 289 289 288 288 288 288 289 290 292 294 295 295 296 296 297 297 297 297 297 296 296 296 295 295 295 294 294 293 293 293 293 293 293 294
305 304 305 305 304 304 303 303 303 304 305 305 304 304 303 303 304 304 304 305 305 305 304 304 304 304 304 303 303 302 302 301 300 300 299 299 298 297 297 297 297 296 296 295 294 293 292 291 291 290 290 289 288 287 287 286 286 287 287 288 289 290 292 293 294 294 295 295 295 295 295 295 295 295 295 294 294 294 293 293 293 293 293 293 294 295
307 305 304 304 304 303 302 301 301 303 304 305 305 304 303 302 302 303 303 304 304 304 304 303 303 303 302 302 302 301 301 301 300 299 299 298 297 297 296 296 296 296 295 295 293 292 291 291 290 290 289 288 287 286 286 285 286 286 287 287 287 288 290 290 291 292 293 293 293 294 294 294 294 294 294 293 293 293 293 292 292 292 293 293 294 295
309 306 304 304 304 304 303 301 300 301 302 304 304 304 303 302 301 301 301 302 303 303 303 303 302 302 301 301 301 301 300 300 299 299 298 298 297 296 296 295 295 295 295 294 293 292 291 290 290 290 289 288 287 286 285 285 285 286 286 287 287 288 288 289 289 290 291 291 292 292 292 292 293 292 292 292 292 292 292 291 291 291 293 294 295 295
307 306 304 303 303 303 303 302 300 300 301 302 302 302 302 302 301 300 300 300 301 302 302 302 302 301 301 300 300 300 299 299 298 297 297 296 296 295 295 295 295 295 294 293 292 291 291 290 290 290 289 288 287 286 285 284 285 285 286 287 287 288 288 288 289 289 289 290 290 291 291 291 291 291 291 291 291 291 291 290 290 290 292 294 295 296
305 304 304 302 301 301 301 301 300 299 299 300 299 299 299 300 301 301 300 299 300 300 300 301 301 301 300 300 299 299 298 298 297 296 295 295 294 294 294 294 294 294 293 293 292 291 290 290 290 289 289 288 287 286 285 284 284 285 286 286 287 288 288 288 289 289 289 289 289 290 290 290 290 290 290 290 290 289 289 289 289 290 293 294 295 296
305 304 303 302 301 300 300 299 298 298 298 298 298 298 298 299 300 300 300 299 299 299 300 300 300 300 300 299 299 298 298 297 296 295 294 294 293 293 293 293 293 293 294 293 292 291 290 290 290 289 289 287 286 285 285 284 284 285 286 286 287 287 288 288 289 289 289 289 289 289 289 290 290 290 290 289 289 289 288 288 289 291 293 294 295 296
304 303 302 301 300 299 299 298 298 297 298 298 299 300 300 299 299 299 299 299 299 299 299 299 299 299 299 298 298 297 297 296 296 295 294 293 293 293 293 293 294 294 294 293 292 291 291 291 290 289 289 287 286 285 285 284 284 284 285 286 286 287 287 288 289 289 289 289 290 290 290 290 290 290 290 290 289 289 288 289 290 291 293 294 295 296
303 302 301 300 299 298 298 298 298 298 299 299 300 300 300 299 299 298 298 298 298 298 298 298 298 298 298 297 297 297 296 296 295 294 293 293 293 292 293 293 293 294 293 293 292 292 291 291 290 290 289 287 286 285 284 284 284 284 285 286 286 286 287 287 288 289 289 289 290 290 290 290 290 290 290 290 290 289 289 289 290 291 293 294 295 295
303 302 301 300 299 299 298 298 299 299 299 299 299 299 299 298 298 298 298 298 297 296 296 296 296 296 296 296 296 296 295 295 295 294 293 293 292 292 292 293 293 293 293 293 293 292 292 291 291 290 289 287 286 285 285 285 285 285 285 286 286 286 287 287 287 288 289 289 289 290 290 290 291 290 290 290 290 289 289 289 290 291 292 293 294 295
303 303 302 302 300 299 299 299 299 300 299 299 299 299 299 299 298 298 298 297 296 296 296 296 296 295 295 294 294 294 295 294 294 293 292 292 292 292 292 293 293 293 293 293 293 292 292 291 291 290 289 287 286 285 285 286 286 287 287 287 287 287 287 287 287 288 288 289 289 290 290 290 291 290 290 290 290 289 289 289 290 291 292 293 293 294
303 303 303 302 302 300 299 299 299 299 299 299 298 299 299 299 299 299 298 297 296 296 295 296 297 297 296 295 294 293 294 294 294 292 291 291 291 292 292 292 293 293 293 293 292 292 291 291 291 290 289 287 286 285 285 285 286 287 287 287 287 287 287 286 287 287 288 289 289 290 290 290 290 290 290 290 290 289 289 289 289 290 291 292 293 293
304 303 303 303 303 302 300 299 299 299 299 299 298 298 299 299 299 298 298 297 296 296 296 296 297 297 297 297 295 294 294 294 294 293 291 291 291 291 292 292 292 292 292 292 292 292 291 291 291 290 288 286 285 284 284 285 286 287 287 288 288 287 286 286 287 287 288 288 289 289 290 290 290 290 290 290 289 289 289 289 289 289 290 291 292 293
304 304 304 304 303 302 301 300 300 300 300 300 300 299 299 298 298 298 297 297 297 297 297 297 297 297 297 297 296 294 294 294 294 293 292 291 291 291 291 291 291 291 291 292 292 291 291 291 290 289 288 286 285 284 284 285 286 287 288 288 287 287 286 287 287 288 288 289 289 289 290 290 290 290 290 290 289 289 289 289 289 289 289 290 291 292
304 304 304 304 304 303 302 301 301 302 302 302 301 300 299 298 298 297 297 296 296 296 296 296 297 297 297 297 296 295 294 294 294 293 292 291 291 291 291 291 291 291 291 291 291 291 291 291 290 289 287 285 284 284 284 285 286 287 288 288 287 287 286 287 288 288 289 289 289 289 289 289 290 290 290 289 289 289 289 289 289 289 289 289 290 291
305 305 304 304 305 304 304 303 302 303 303 302 301 300 299 298 297 297 297 296 296 296 296 297 297 297 297 297 297 296 295 294 294 293 292 290 290 291 291 290 290 290 291 291 291 291 291 290 289 288 286 285 284 284 284 285 287 288 288 288 287 287 286 287 288 289 289 289 289 289 289 289 289 289 289 289 289 289 289 289 289 289 289 289 289 290
305 305 305 304 304 304 304 304 303 303 302 302 302 301 300 299 298 298 297 296 296 296 296 296 296 296 296 296 297 296 295 295 294 294 293 290 289 290 290 290 289 289 290 290 291 290 290 290 288 287 285 284 284 284 284 286 287 288 288 287 287 286 287 287 288 289 289 289 289 289 289 289 289 289 289 289 289 289 289 289 289 289 289 289 289 289
304 304 304 304 304 304 304 304 303 303 302 302 302 301 301 300 299 299 297 297 296 296 295 295 295 294 295 295 296 295 295 294 294 293 293 291 290 290 290 289 289 289 289 289 290 290 289 289 287 286 284 284 284 284 284 286 287 288 288 287 287 287 287 288 288 289 289 289 289 289 289 289 289 289 289 289 289 289 289 289 289 289 289 289 289 289
303 303 303 303 303 303 303 303 303 303 302 302 301 301 300 300 299 298 297 296 296 295 295 294 293 292 292 293 293 294 294 294 293 293 293 291 290 290 289 289 288 288 288 288 288 288 288 287 286 285 284 284 284 284 285 286 287 288 288 287 287 287 287 288 288 288 289 289 289 289 289 289 289 289 288 288 288 288 289 289 289 289 289 289 289 289
302 302 302 303 302 302 302 303 303 302 302 301 301 300 300 299 298 297 296 296 295 294 294 292 291 290 290 290 291 292 293 293 293 293 293 291 290 289 288 288 288 288 287 287 287 287 287 286 285 284 284 284 284 284 285 287 287 288 288 287 287 287 288 288 288 288 288 288 288 288 288 288 288 288 288 288 288 288 288 288 288 288 288 288 288 288
301 301 302 302 302 302 302 302 301 301 301 301 301 300 299 299 297 296 295 295 294 294 293 292 290 289 288 288 289 291 292 292 292 292 293 292 290 288 288 287 287 287 287 287 286 286 285 285 284 284 284 284 284 284 285 287 287 288 288 288 288 288 288 288 288 288 288 288 288 288 288 288 288 288 288 288 288 288 288 288 288 288 288 288 288 288
300 300 301 301 301 301 301 301 300 300 300 300 300 300 299 299 297 296 294 294 294 294 294 293 291 289 288 288 289 290 291 292 292 292 292 292 290 288 288 287 286 286 286 286 285 284 284 284 284 284 284 284 284 285 286 287 288 288 288 288 288 288 288 288 288 288 288 288 288 288 288 288 288 288 288 288 288 288 288 288 288 288 288 288 288 287
299 299 300 300 300 300 300 300 299 299 299 299 299 299 299 299 298 297 295 295 294 294 294 294 292 291 289 288 288 289 290 291 291 291 291 291 290 289 288 286 286 286 286 285 284 284 284 285 285 285 284 284 285 285 286 287 288 288 288 288 288 288 288 288 288 288 288 288 288 288 288 288 288 287 287 287 287 287 287 287 287 287 287 287 287 287
298 298 298 298 299 299 299 298 298 298 298 298 298 298 298 298 298 297 297 296 295 294 294 294 293 291 289 288 288 287 288 290 291 291 290 290 289 288 287 286 285 286 286 285 284 284 285 285 285 285 285 285 285 285 286 287 287 288 288 288 288 288 288 288 288 288 288 287 287 287 287 287 287 287 287 287 287 287 287 287 287 287 287 287 287 287
297 297 297 297 297 297 297 297 297 297 297 297 297 297 297 297 297 297 296 296 295 295 294 294 293 291 290 289 288 288 288 289 290 290 290 290 289 288 286 285 285 286 286 286 285 284 284 285 286 286 286 286 285 286 286 287 287 287 287 288 288 288 288 288 287 287 287 287 287 287 287 287 287 287 287 287 287 287 287 287 287 287 287 287 287 287
296 296 296 296 296 296 296 296 296 296 296 296 296 296 296 296 296 295 296 296 295 295 295 294 293 292 291 291 291 290 289 291 291 290 290 289 289 288 287 286 285 285 286 286 285 284 283 284 285 286 286 286 286 286 286 287 287 287 287 287 287 287 287 287 287 287 287 286 286 286 286 286 286 286 287 287 287 287 287 287 287 287 287 287 287 287
295 295 295 295 295 295 295 295 295 295 295 295 295 295 295 295 295 295 295 295 295 295 294 294 293 292 292 292 292 292 291 292 291 290 289 289 289 288 287 286 286 285 285 285 286 285 285 285 285 286 286 286 286 286 286 286 287 287 287 287 287 287 287 287 287 286 286 285 285 285 285 285 285 286 286 286 286 286 287 287 287 287 287 287 287 287
294 294 294 294 294 294 294 295 295 294 294 294 294 294 294 294 294 294 294 294 294 294 294 294 294 293 292 291 291 291 292 292 292 290 289 289 289 288 287 286 285 285 285 285 285 286 286 285 285 285 286 286 286 286 286 286 287 287 287 287 287 287 287 287 286 286 285 285 285 284 284 284 284 285 285 285 286 286 286 286 286 287 287 287 287 287
293 293 293 293 293 293 293 293 294 294 294 293 293 293 293 293 293 293 293 293 293 293 293 294 294 294 293 292 292 291 292 292 291 290 289 289 289 289 287 286 286 286 285 285 286 286 286 285 285 285 285 285 286 286 286 286 286 286 287 287 286 286 286 286 286 286 285 285 285 285 285 285 284 284 284 285 285 285 286 286 286 286 286 287 287 287
292 292 292 292 292 292 292 292 292 293 293 293 293 293 293 293 293 293 293 293 293 293 293 293 293 293 294 294 293 293 294 293 292 290 289 289 290 289 288 287 286 286 285 285 286 286 286 285 285 285 285 285 285 285 285 286 286 286 286 286 286 286 286 286 286 285 285 285 285 285 285 285 285 284 284 284 284 285 285 285 285 286 286 287 287 287
291 291 291 291 291 292 291 291 291 292 292 292 292 292 292 292 292 292 292 292 292 292 292 292 293 293 293 293 293 294 294 293 292 290 289 289 289 289 289 288 288 287 286 285 285 286 286 285 285 285 285 285 285 285 285 285 285 285 286 286 286 286 285 286 285 285 285 285 285 285 285 285 285 284 284 284 284 284 284 285 285 285 286 286 287 287
290 290 290 290 290 290 290 290 290 290 291 291 291 291 291 291 291 291 291 291 292 292 292 292 292 292 292 292 292 292 292 292 291 290 289 289 289 289 289 289 288 287 287 286 286 286 286 285 284 284 284 285 285 285 285 285 285 285 285 285 285 285 285 285 285 285 285 285 285 285 285 285 284 284 284 284 284 284 285 285 285 285 285 285 286 286
290 289 289 289 289 289 289 289 289 290 290 291 291 291 291 291 291 291 291 291 291 291 291 291 291 291 291 291 291 290 290 289 289 289 289 289 288 288 289 289 288 287 286 286 286 286 286 286 285 284 284 285 285 285 285 285 285 285 285 285 285 285 285 285 285 285 285 285 285 285 285 284 284 284 284 285 285 285 285 285 285 285 285 285 285 286
289 289 289 289 289 289 289 289 289 289 290 290 290 290 290 290 290 290 290 290 290 290 290 291 291 291 291 290 290 289 288 288 287 287 288 288 288 288 288 288 288 287 286 285 285 285 286 286 286 285 285 285 285 285 285 285 285 285 285 284 284 285 285 285 285 285 285 285 285 285 284 284 284 284 284 285 285 285 285 285 285 285 285 285 285 285
289 289 288 288 288 288 288 288 289 289 289 290 289 289 289 290 290 289 289 289 289 289 289 290 290 290 289 289 289 288 287 287 286 286 286 287 287 287 287 287 287 287 286 285 284 285 285 285 285 285 286 285 285 285 285 285 285 285 284 284 284 285 285 285 285 285 285 285 284 284 284 284 284 284 284 284 284 285 285 285 285 285 285 285 285 285
289 289 288 288 287 287 287 288 288 288 289 289 289 288 288 289 289 289 288 288 288 288 288 288 288 288 287 287 287 286 286 286 285 285 285 285 285 286 286 286 286 286 285 284 284 284 285 285 285 285 285 285 285 285 285 285 285 285 284 284 284 284 284 284 284 284 284 284 284 284 284 284 284 284 284 284 284 284 284 284 285 285 285 285 285 285
289 288 288 288 287 287 287 287 287 287 287 287 287 287 288 288 288 288 288 287 287 287 287 287 287 287 286 285 285 285 284 284 284 284 284 284 284 285 285 285 285 285 285 284 284 285 285 285 285 285 285 285 285 285 285 285 285 284 284 284 284 284 284 284 284 284 283 283 283 283 283 283 283 283 283 283 284 284 284 284 285 285 285 285 285 285
288 288 288 287 287 287 287 286 286 286 286 286 286 286 286 286 287 287 287 287 287 286 286 285 285 285 285 284 284 283 283 283 284 284 284 284 284 284 284 284 284 284 284 284 285 285 285 285 285 285 285 285 285 285 285 285 284 284 283 283 283 283 284 284 284 284 283 283 283 283 283 283 283 283 283 283 283 284 284 284 284 285 285 285 285 285
288 287 287 287 287 286 286 286 285 285 285 285 285 285 285 285 285 286 286 286 286 285 285 284 284 284 283 283 283 283 283 283 283 283 283 283 283 284 284 284 284 284 284 284 285 285 285 285 285 285 285 285 285 285 285 285 284 284 283 283 283 283 284 284 284 284 284 283 283 283 283 282 282 282 282 283 283 283 284 284 284 284 285 285 285 285
288 287 287 286 286 286 285 285 285 285 285 285 285 285 285 284 285 285 286 286 285 284 284 284 283 283 282 282 282 282 282 282 282 283 283 283 283 283 284 284 284 284 284 284 284 285 285 285 285 285 285 285 284 284 284 284 284 284 284 283 283 283 283 283 283 283 283 283 283 283 283 282 282 282 282 283 283 283 284 284 284 284 284 284 285 285
287 287 286 286 286 285 285 285 285 284 284 284 284 284 284 284 284 284 284 284 284 284 283 283 283 282 282 282 282 282 282 282 282 282 283 283 283 283 283 283 284 284 284 284 284 284 284 284 285 285 285 284 284 284 284 284 284 284 284 283 283 283 283 283 283 283 283 283 283 283 283 282 282 282 282 283 283 283 283 284 284 284 284 284 284 285
287 287 286 286 285 285 285 284 284 284 284 284 284 284 284 284 284 283 283 283 283 283 282 282 282 282 282 282 281 281 282 282 282 282 282 282 283 283 283 283 283 284 284 284 284 284 284 284 284 284 284 284 284 284 284 283 283 283 283 283 283 283 283 283 283 283 283 283 283 283 282 282 282 282 282 282 283 283 283 283 284 284 284 284 284 284
287 286 286 285 285 284 284 284 284 284 284 284 284 283 283 283 283 283 283 283 283 282 282 282 282 282 282 281 281 281 281 281 282 282 282 282 282 283 283 283 283 283 283 283 283 284 284 284 283 283 283 283 283 284 283 283 283 283 283 283 283 283 283 283 283 282 283 283 282 282 282 282 282 282 282 282 283 283 283 283 283 284 284 284 284 285
287 286 286 285 285 284 284 284 284 284 284 284 284 283 283 283 283 283 283 283 282 282 282 283 283 283 282 282 281 281 281 281 281 281 282 282 282 282 283 283 283 283 283 283 283 283 283 283 283 283 283 283 283 283 283 283 282 282 282 282 283 283 283 283 283 283 283 283 283 282 282 282 282 282 282 282 283 283 283 283 283 284 284 284 284 284
286 286 286 285 285 284 284 284 284 284 283 283 284 283 283 283 283 283 283 283 282 282 282 283 283 283 283 282 282 281 281 281 281 281 281 282 282 282 282 283 283 283 283 282 282 282 282 282 281 282 282 282 282 282 282 282 282 282 282 282 282 283 283 283 283 283 283 283 283 283 283 282 282 282 282 282 282 282 282 283 283 283 284 284 284 284
Wind_Speed
14 14 13 12 12 12 13 12 11 10 9 11 12 13 13 14 15 15 14 14 14 15 16 17 18 18 17 16 15 14 12 11 9 8 7 7 6 5 4 3 3 3 2 2 2 3 3 4 5 5 6 7 7 8 8 8 9 9 9 8 8 8 7 7 6 5 5 5 4 4 4 4 4 4 4 3 2 1 0 1 2 2 3 4 5 5
14 13 13 11 11 12 13 13 11 10 10 10 12 13 14 16 16 17 16 16 16 17 17 18 18 18 17 16 15 13 12 10 9 9 8 7 6 5 4 3 3 2 2 1 2 3 3 4 5 5 6 6 7 8 8 8 9 9 9 9 9 9 9 8 8 7 7 6 6 6 5 5 4 3 3 2 2 1 1 1 1 2 3 4 4 4
15 14 13 11 11 12 14 14 13 11 10 10 11 13 15 16 17 18 18 18 18 18 18 18 18 18 17 16 15 13 11 10 10 9 8 7 6 5 4 3 2 1 0 1 2 3 3 4 4 5 6 6 7 7 8 8 8 9 9 10 10 10 9 9 9 9 8 8 8 7 6 5 4 3 3 2 2 1 1 1 1 1 2 3 4 4
16 16 15 13 12 12 14 15 14 13 11 10 11 12 14 17 18 18 19 19 19 19 18 18 18 18 17 16 14 13 12 11 10 10 8 7 6 5 4 3 2 1 1 1 2 3 3 4 4 4 5 6 6 7 8 8 9 9 9 9 10 10 10 10 10 9 10 9 8 7 7 6 5 4 4 3 2 2 1 1 1 1 2 3 3 3
16 16 16 15 14 14 14 15 15 14 13 13 13 14 15 17 18 19 19 19 19 19 19 18 18 17 17 16 14 13 12 12 11 10 9 8 7 6 5 4 3 2 1 2 2 3 3 3 3 4 4 5 5 6 7 8 9 9 10 10 10 10 10 10 10 9 9 9 8 7 6 6 5 5 4 3 3 2 1 2 2 2 2 3 3 3
15 15 15 15 15 15 16 16 17 16 15 15 15 16 17 18 19 20 20 20 20 19 19 18 18 17 17 16 15 13 13 12 12 11 10 9 8 7 6 5 4 3 2 2 2 2 2 2 2 2 3 3 4 4 5 6 8 9 10 11 11 11 10 10 10 9 9 8 8 7 6 6 6 5 5 4 3 2 2 2 3 2 2 3 4 4
14 15 16 16 16 16 17 18 18 18 17 17 17 17 17 18 19 20 21 21 20 20 20 19 18 17 16 15 15 14 13 13 12 11 10 9 9 8 7 6 4 3 2 2 2 1 1 1 1 1 1 1 2 2 3 4 6 7 9 10 11 11 11 10 10 9 9 8 8 7 7 6 6 6 5 4 4 3 2 2 3 3 3 3 4 4
15 16 17 17 17 18 18 19 19 19 18 18 18 18 19 19 20 21 21 21 21 20 20 19 18 17 16 16 15 15 15 14 13 12 11 10 9 8 7 6 5 4 3 2 2 1 1 0 1 1 1 1 1 0 1 2 4 5 7 8 10 10 10 10 9 9 9 9 8 8 7 7 6 6 6 5 5 4 3 3 3 3 4 4 5 5
17 17 18 19 19 19 19 18 19 19 19 18 18 19 20 20 21 21 21 21 21 21 20 20 19 18 17 17 17 17 16 15 15 14 13 12 11 10 9 7 6 5 4 3 2 1 1 1 1 2 2 2 2 1 1 1 2 3 5 6 8 9 9 9 9 9 8 8 8 8 8 7 6 6 6 6 5 5 4 3 3 3 4 5 5 5
18 19 19 19 20 20 19 18 19 20 19 18 17 18 19 21 21 21 20 21 21 21 21 21 21 20 19 18 18 18 17 16 15 14 13 12 11 11 10 9 8 6 5 4 3 2 1 1 1 2 2 3 2 2 1 0 1 3 4 5 6 7 8 8 8 8 8 8 8 8 8 7 7 6 6 6 6 6 5 4 4 4 5 5 5 4
18 18 18 18 19 20 19 19 20 20 20 18 17 17 17 19 21 20 19 20 21 22 21 21 22 21 21 20 19 19 18 17 15 14 13 12 11 11 11 10 9 7 7 5 3 2 1 0 1 2 3 3 3 2 1 1 2 3 4 5 6 6 6 7 7 7 8 8 8 8 8 7 7 6 6 6 5 5 5 5 5 6 7 6 6 5
17 17 17 17 18 18 18 19 20 21 20 19 16 15 16 19 21 21 21 20 21 22 22 22 23 23 22 22 21 20 20 18 17 16 14 13 13 12 12 11 10 9 8 6 4 3 1 1 1 2 3 4 3 2 1 1 2 3 4 5 6 6 6 6 6 6 6 6 7 7 7 7 6 6 5 5 5 5 5 6 6 8 8 8 7 6
17 17 17 17 18 18 18 18 19 20 20 19 17 15 16 19 21 21 20 21 22 23 23 23 24 24 24 23 23 22 21 20 19 18 17 17 16 15 15 14 13 11 9 7 5 3 2 1 2 3 4 4 4 3 2 2 3 3 4 5 6 7 7 7 7 6 6 6 6 6 6 6 6 5 4 4 4 4 5 7 8 9 9 9 8 8
16 16 16 16 16 18 19 20 20 19 18 19 19 18 19 21 22 21 19 19 20 22 23 23 23 24 24 24 24 23 23 22 21 20 19 19 18 18 17 15 14 12 10 7 5 4 3 2 2 3 4 4 4 3 2 2 3 3 4 5 6 6 7 7 8 7 7 7 6 6 6 6 6 5 5 4 4 5 6 8 10 10 10 10 9 9
16 16 14 13 14 16 19 20 20 20 20 20 20 19 19 20 21 21 19 18 18 20 21 21 22 22 23 23 24 24 24 24 23 22 21 21 20 19 17 16 14 12 10 8 6 5 4 3 3 4 4 4 4 3 2 2 3 4 4 5 5 6 7 7 8 8 8 8 7 7 7 7 7 6 6 6 6 6 8 9 11 11 11 10 10 10
18 17 15 14 14 16 18 20 20 20 20 20 20 19 18 19 20 21 20 19 19 20 19 18 16 17 18 22 24 24 24 24 23 23 23 22 21 20 18 16 15 13 11 9 7 5 5 4 4 4 5 5 4 3 2 2 3 3 4 4 5 5 6 7 8 8 9 9 8 8 7 7 7 7 7 6 6 7 8 10 11 11 11 11 11 10
18 17 16 15 15 16 18 20 20 20 20 20 20 20 20 20 21 21 20 21 21 20 18 17 14 11 12 16 21 24 25 24 23 22 23 22 21 20 18 17 15 14 12 10 8 6 5 5 5 5 5 5 4 3 3 3 3 4 4 4 4 4 5 6 8 8 9 9 9 8 8 7 7 7 7 6 6 7 8 10 11 12 11 11 11 11
18 17 17 16 15 16 18 19 20 20 19 19 20 20 20 20 21 22 22 22 22 20 18 18 16 13 11 12 18 24 26 25 23 21 21 21 22 21 19 17 15 14 12 10 9 7 6 6 6 6 5 5 4 4 4 4 4 4 4 4 4 4 5 6 7 8 9 9 9 9 8 8 7 7 6 6 6 6 7 9 10 11 11 12 11 11
18 18 18 17 16 17 18 19 20 20 19 20 20 20 20 20 20 21 22 23 23 22 20 19 18 17 15 14 20 26 27 26 23 20 19 20 21 22 20 18 16 14 13 11 10 8 7 6 6 6 5 5 4 4 5 5 5 5 5 4 4 4 5 6 8 8 8 9 9 9 8 8 7 7 6 6 5 5 6 7 9 11 11 12 11 11
18 18 19 18 17 17 18 20 21 21 21 21 21 20 20 20 20 21 21 22 23 23 22 20 19 18 17 16 20 26 29 28 24 19 17 19 21 22 20 18 17 15 13 12 11 9 8 7 7 6 5 5 5 5 6 6 6 5 5 5 4 5 6 7 8 8 7 8 8 8 8 8 7 7 6 6 5 5 5 5 7 9 11 11 11 11
18 18 19 19 18 17 17 20 21 21 21 21 21 21 21 21 20 21 21 21 22 21 21 19 18 18 18 17 19 24 29 28 24 19 16 17 20 21 21 19 17 16 14 13 12 11 9 8 7 6 6 5 5 6 7 7 6 6 6 5 5 5 7 8 9 8 7 7 7 7 7 7 7 7 7 6 6 5 5 5 6 7 9 10 11 11
16 16 17 17 18 18 17 18 20 20 20 21 22 22 21 21 21 21 21 22 21 21 19 18 17 17 17 18 19 22 27 29 26 21 16 15 17 21 20 19 18 17 15 14 13 12 10 8 7 7 6 6 6 7 8 7 7 6 6 5 5 6 8 9 9 8 7 7 7 7 7 7 7 7 7 7 7 6 5 5 5 6 7 9 10 10
14 13 13 14 16 16 16 17 18 19 20 21 22 23 22 24 24 24 23 23 22 21 20 19 18 16 16 16 17 19 24 28 27 23 17 13 15 20 20 19 18 17 16 15 13 12 10 9 8 7 7 7 7 8 8 8 7 7 6 6 6 7 9 10 9 8 8 7 8 8 8 8 8 8 8 8 8 8 7 6 5 5 6 7 8 9
15 14 13 13 14 15 15 15 16 18 19 20 21 21 22 23 23 23 23 23 23 22 21 20 18 15 14 15 17 20 24 27 27 24 18 14 16 19 20 20 18 17 16 15 13 11 10 9 8 7 7 8 8 9 9 8 8 7 7 7 7 8 10 10 9 9 8 8 8 8 8 8 8 8 8 9 9 8 8 7 7 6 6 6 7 8
16 16 15 14 14 13 14 14 15 16 17 19 19 20 20 20 21 21 21 22 22 22 21 18 15 13 14 16 19 22 24 28 28 24 19 15 16 19 20 19 19 18 16 14 12 11 9 9 8 8 8 8 9 9 9 9 8 7 7 7 8 9 10 10 9 9 9 8 8 8 8 8 8 8 8 8 8 8 8 8 7 7 6 6 7 7
17 17 17 16 14 13 12 12 12 14 15 17 19 20 21 21 20 20 20 21 21 21 20 16 13 12 15 18 20 22 25 28 28 26 20 16 17 18 20 19 19 18 16 14 12 10 9 9 8 8 8 9 10 10 10 10 9 8 8 8 9 10 10 10 9 9 9 9 8 8 8 8 8 8 8 8 8 8 8 8 8 7 7 7 6 6
16 17 17 16 14 12 11 11 11 12 14 16 18 20 21 21 21 20 20 21 23 22 20 15 11 10 12 14 18 21 25 27 28 26 22 18 18 19 20 20 19 18 16 14 11 9 8 8 8 8 9 10 10 10 10 10 9 9 8 8 9 9 10 9 9 9 9 9 8 8 8 8 8 8 8 8 8 8 8 8 8 8 8 7 7 6
15 16 16 15 14 13 12 11 11 11 13 15 17 18 20 21 22 22 22 23 24 23 19 16 12 9 10 11 16 21 25 27 28 26 23 19 17 19 22 21 20 18 16 14 11 9 8 7 7 8 9 10 11 11 11 10 9 9 9 9 9 9 9 9 9 9 9 8 8 8 8 8 8 8 8 8 8 8 8 8 9 9 9 8 8 7
14 15 15 15 14 13 12 12 11 11 12 14 16 18 19 20 22 23 24 25 25 22 19 17 15 12 12 13 16 20 23 26 27 26 23 19 17 19 22 22 21 19 18 15 12 9 9 8 7 8 9 10 11 11 11 11 10 10 9 9 9 9 9 9 9 9 9 8 8 8 8 8 7 7 7 7 7 8 8 8 8 9 8 8 8 7
14 14 14 14 13 13 12 12 12 12 12 14 16 18 19 19 20 22 24 25 25 23 19 17 16 15 14 13 11 12 16 24 28 27 24 19 17 20 23 23 22 21 19 15 10 7 7 9 9 9 9 10 11 12 12 12 12 11 11 10 10 10 9 10 10 10 10 9 9 9 9 8 8 8 7 7 7 7 7 7 7 7 7 7 6 5
14 14 14 13 13 13 13 12 12 13 13 15 16 18 19 19 19 20 23 25 26 24 20 18 17 18 18 14 8 4 9 23 29 28 26 21 19 22 25 25 24 22 20 15 10 5 4 8 11 11 10 10 11 12 12 13 13 13 13 13 12 12 11 11 11 11 11 11 10 10 9 9 8 8 8 8 8 8 7 7 7 7 6 5 5 5
14 14 14 14 14 14 14 15 15 16 17 17 18 19 20 20 20 20 21 23 25 25 22 20 20 21 21 17 12 9 10 23 30 30 27 22 21 24 26 26 25 23 21 16 11 7 4 8 12 13 12 12 12 12 13 13 14 14 15 15 14 14 14 14 13 13 12 11 10 9 9 9 9 9 9 9 9 8 8 8 8 8 7 6 6 5
15 15 15 15 16 16 17 18 19 19 20 20 20 20 20 20 20 19 19 21 23 24 23 22 22 22 21 20 17 14 14 20 28 31 29 24 22 23 26 26 25 23 21 17 12 8 6 8 11 14 14 14 13 13 13 14 14 15 15 16 16 16 15 14 14 13 12 10 9 8 8 8 8 8 9 9 9 9 9 9 9 9 8 8 7 7
17 17 17 17 18 19 20 20 21 21 21 21 20 20 20 20 20 19 19 19 21 22 23 23 23 23 22 19 16 14 13 17 25 32 31 27 23 23 26 26 25 24 22 17 12 8 7 10 13 14 14 15 15 14 14 15 15 16 16 16 16 16 16 15 14 13 12 11 9 8 7 7 7 8 9 9 10 10 10 10 9 9 9 8 8 8
18 18 19 19 20 21 21 21 22 22 22 21 21 20 20 20 20 19 19 19 20 21 21 21 22 23 23 22 19 16 15 16 23 30 32 30 26 24 26 26 25 24 22 19 14 10 8 11 15 15 14 15 15 15 16 16 16 16 16 16 16 16 16 15 15 14 13 12 10 9 8 7 7 8 9 10 10 10 10 10 10 10 9 8 8 8
20 20 20 21 21 22 22 22 22 22 21 21 21 20 20 20 19 19 18 19 19 20 20 20 20 21 22 22 21 20 17 17 22 28 32 32 28 25 25 26 26 25 23 21 17 14 12 13 15 16 16 14 14 14 16 17 17 17 17 17 17 16 16 15 15 15 14 13 11 10 9 8 8 8 9 9 10 11 11 11 11 11 10 9 8 8
21 21 21 21 21 22 22 22 22 22 21 21 21 21 20 20 19 18 18 18 19 19 19 19 19 19 19 19 18 17 15 15 19 26 31 31 29 25 24 24 25 24 24 22 20 18 16 15 15 15 15 14 12 12 16 19 19 19 19 19 18 18 17 16 16 15 14 13 12 11 10 9 8 8 8 9 10 10 11 11 12 12 12 11 10 9
21 21 21 21 21 21 21 21 21 21 21 21 21 21 20 20 19 19 18 18 19 19 19 18 18 18 18 17 14 12 12 13 17 23 28 29 28 25 23 23 23 23 23 23 22 21 19 16 14 13 13 13 12 13 17 20 21 21 20 20 19 19 19 18 17 16 15 14 12 11 11 10 9 8 8 8 9 10 11 11 12 12 12 12 12 11
21 21 21 21 21 21 21 21 20 20 20 20 20 20 20 20 20 19 18 18 18 19 18 18 18 18 17 16 14 12 12 13 16 20 25 27 27 26 23 22 22 22 21 22 22 22 21 18 16 14 13 12 12 14 17 20 21 21 21 20 20 20 20 20 19 18 16 14 13 12 11 11 10 9 8 8 8 9 10 11 11 11 12 12 13 12
21 21 21 20 20 20 20 20 20 19 19 19 19 19 20 20 20 19 19 19 19 18 18 18 17 17 16 15 14 13 13 14 16 18 22 24 26 25 23 21 20 20 20 21 21 21 20 19 18 18 17 15 14 14 16 18 20 20 20 20 20 20 21 20 19 17 16 14 13 12 12 11 10 9 8 8 8 8 9 9 10 11 12 13 13 13
21 21 20 20 19 19 19 19 18 18 18 18 18 19 20 20 20 20 20 19 19 18 18 17 17 16 15 14 13 12 13 14 16 17 19 21 22 23 22 20 18 18 19 21 21 20 20 18 17 17 16 16 15 15 16 17 18 18 19 19 19 19 18 18 17 16 15 14 13 12 12 12 11 10 9 9 8 8 8 9 10 11 11 12 13 13
21 20 20 20 20 20 19 18 17 17 17 18 19 20 20 20 21 21 21 20 19 18 17 17 16 16 15 14 13 13 13 14 15 17 17 18 19 20 20 18 17 17 19 20 21 20 18 17 16 16 16 16 15 15 15 15 15 15 17 17 16 14 13 14 15 15 14 14 13 13 13 13 12 11 10 9 9 9 9 9 10 11 11 12 12 12
21 21 21 21 21 20 19 18 18 18 18 19 19 20 20 20 20 21 21 21 20 19 17 17 16 16 16 15 15 14 14 14 15 16 17 17 18 18 18 17 16 17 18 20 20 19 18 16 15 14 15 16 16 16 16 16 15 15 14 14 14 13 8 11 14 15 14 14 14 14 14 13 12 12 11 10 10 10 10 10 11 11 11 11 11 11
21 22 22 22 21 20 20 19 19 19 20 20 20 20 20 19 19 20 20 20 19 18 18 17 16 16 16 17 17 16 15 15 16 17 17 17 17 17 17 17 16 17 18 20 20 20 18 16 15 14 14 14 15 15 16 16 16 15 14 14 14 13 10 9 11 13 14 14 14 14 13 13 12 12 11 11 11 10 11 11 11 11 11 11 11 11
23 23 23 22 22 21 21 21 21 21 21 21 21 21 20 19 18 18 19 19 18 18 18 17 17 17 17 17 18 18 17 17 17 17 18 18 18 17 17 17 17 18 18 19 19 19 19 18 16 15 15 14 14 14 15 16 16 15 15 14 14 13 11 9 8 10 11 12 12 12 12 12 11 11 12 11 11 11 11 10 10 10 10 10 10 10
24 24 24 23 22 22 22 22 22 22 22 22 21 21 20 19 18 17 18 18 18 18 18 17 17 18 18 19 19 19 19 19 19 19 19 19 18 18 17 17 17 18 19 18 18 18 18 18 18 17 16 15 14 14 14 14 15 15 15 15 15 14 12 11 10 9 9 10 10 10 10 11 11 11 12 12 12 11 11 10 10 9 9 9 10 10
25 25 25 24 23 23 22 22 23 23 23 22 21 21 20 19 18 17 17 17 18 18 18 17 17 18 19 20 20 20 21 20 20 20 20 20 19 18 17 17 17 18 18 19 18 17 17 17 17 17 17 16 15 15 15 14 14 14 14 14 14 14 14 13 12 11 10 9 9 9 10 10 11 12 12 12 11 11 11 10 9 9 9 9 9 10
26 26 25 25 24 23 23 23 23 23 23 22 22 21 19 19 18 18 18 18 18 19 19 18 17 17 18 19 20 21 21 22 22 22 21 21 20 19 18 17 17 17 17 18 18 18 17 17 16 16 17 17 16 17 17 16 15 14 13 13 14 14 15 14 13 12 11 10 10 10 10 10 11 11 11 11 11 12 11 10 10 9 9 9 9 9
26 26 25 25 24 24 24 24 24 24 23 23 22 21 20 18 18 18 18 19 19 20 20 19 18 17 17 18 18 19 20 21 22 22 22 22 21 20 19 18 17 17 17 16 16 16 16 16 16 16 16 16 16 17 18 17 16 15 14 13 13 14 14 14 13 12 12 11 11 10 10 10 10 10 10 10 11 12 11 10 10 9 9 8 8 8
25 25 25 25 25 25 25 25 24 24 23 23 23 22 21 19 18 18 18 18 19 20 20 20 19 18 18 18 18 18 19 20 21 22 22 22 22 21 20 19 18 18 17 16 15 14 14 14 14 16 16 16 16 16 16 16 16 15 15 15 14 14 13 13 13 13 12 12 11 11 11 10 10 9 10 10 11 11 11 10 10 9 8 8 7 7
25 25 25 25 25 25 25 25 24 23 23 23 23 23 22 21 20 19 18 19 19 20 21 20 19 18 19 18 18 18 19 20 21 21 22 22 22 22 21 21 20 19 17 15 13 12 11 10 9 12 16 17 16 16 15 15 15 15 15 16 15 15 14 13 12 12 12 12 12 11 11 11 11 11 11 11 11 11 11 11 10 9 8 7 7 7
Wind_Direction
185 189 196 201 198 191 188 197 203 201 198 192 186 181 181 184 188 192 195 199 200 200 199 199 199 201 202 202 203 204 205 205 206 205 204 207 216 228 242 257 273 288 292 277 250 230 218 214 210 206 200 194 186 178 169 162 155 148 139 133 128 124 126 129 135 141 145 148 151 157 164 174 181 189 199 210 219 226 40 32 37 50 71 84 83 75
185 189 195 200 198 192 188 195 201 203 200 195 188 183 182 185 188 191 194 197 199 201 202 202 203 203 204 203 204 204 205 205 204 202 200 205 212 222 233 247 263 280 287 261 225 211 206 204 203 201 200 199 196 192 186 178 170 163 156 152 147 141 138 138 139 143 149 152 153 154 160 169 173 175 181 187 187 178 145 93 68 71 82 90 84 74
181 184 191 198 199 194 190 190 196 203 203 197 189 184 185 188 190 192 194 195 197 200 203 204 205 205 205 205 204 204 205 204 202 201 202 205 208 213 221 232 246 259 263 197 191 191 192 194 197 198 199 200 201 202 200 196 190 182 175 169 164 160 156 153 152 154 159 160 160 160 162 163 163 161 155 156 156 156 149 121 76 72 87 96 91 77
183 182 188 193 196 195 194 191 193 196 197 194 189 187 189 192 193 193 194 195 196 198 201 204 207 208 207 205 204 202 202 202 202 201 203 202 201 203 209 212 214 202 161 161 172 179 183 187 191 195 198 201 204 207 209 209 207 203 197 190 183 178 175 173 171 171 171 170 170 168 165 162 157 151 147 145 143 138 123 71 41 54 85 104 96 78
187 188 189 188 187 190 194 195 194 193 192 191 190 190 192 195 195 195 195 196 197 197 199 202 206 208 209 206 203 201 200 200 202 202 201 199 198 200 199 202 201 193 169 164 169 175 179 182 186 190 194 200 205 209 212 214 215 214 212 208 202 196 192 189 186 184 181 180 179 178 174 169 163 158 155 150 142 123 90 57 44 48 78 104 103 92
188 190 190 185 182 183 189 193 195 194 191 191 191 192 193 195 195 195 194 194 196 197 198 199 203 207 208 207 204 200 198 199 199 199 198 198 197 196 196 199 201 200 190 179 173 173 176 180 184 188 193 197 201 205 210 214 216 217 216 215 212 209 204 201 197 195 194 192 191 188 186 182 178 174 169 164 153 129 97 69 54 52 73 99 106 102
183 187 186 183 183 184 186 191 195 196 193 190 191 192 192 193 195 195 194 193 194 196 197 198 200 202 204 204 200 196 194 195 196 197 197 196 195 195 196 199 202 203 202 191 179 166 161 166 181 198 209 208 202 200 203 207 211 214 215 215 214 212 210 207 205 204 205 203 201 200 198 196 194 191 189 184 175 157 124 88 67 61 77 95 103 103
175 181 184 183 183 183 184 188 194 198 198 194 190 189 190 192 193 194 194 194 194 194 194 194 194 195 196 196 194 192 190 191 191 192 192 192 193 194 197 199 202 206 207 197 179 158 127 71 21 356 349 349 352 331 203 198 201 204 207 210 210 210 210 209 207 208 208 208 207 207 206 205 205 205 204 201 195 183 159 124 92 78 82 88 96 100
178 179 184 187 184 179 179 185 192 198 202 201 196 190 187 187 189 191 192 191 191 190 190 188 187 187 188 190 191 191 191 191 191 191 191 191 192 194 196 199 202 206 206 195 179 155 110 41 12 360 357 358 360 359 354 197 191 192 195 199 202 203 203 203 203 204 205 206 206 206 205 205 206 207 208 207 204 197 184 166 133 103 93 87 91 96
187 184 184 188 189 186 180 181 188 195 200 203 203 199 192 186 184 184 186 187 187 187 187 186 183 182 183 186 188 189 189 190 192 193 194 195 194 195 197 199 202 204 201 191 180 164 121 25 359 352 350 352 352 351 342 232 191 184 183 185 187 190 192 193 195 197 198 199 200 201 201 201 201 203 205 207 206 204 200 191 169 137 114 101 96 99
183 184 182 184 188 190 188 184 186 190 194 197 199 199 197 191 185 181 180 182 184 184 183 184 182 180 179 181 184 186 185 183 184 186 189 192 193 194 197 198 200 199 194 188 182 173 168 351 342 340 340 341 341 336 310 235 200 189 182 178 177 177 179 183 186 189 192 194 195 195 195 197 198 200 204 207 209 209 207 201 180 153 130 116 107 106
177 180 180 181 183 185 186 185 184 185 187 187 186 187 190 193 192 187 182 181 182 181 180 181 181 180 178 178 180 183 183 180 178 177 177 179 183 187 189 191 192 192 190 188 185 183 193 270 313 322 328 329 328 320 290 230 205 194 186 181 176 172 169 168 169 173 177 183 186 187 188 190 191 194 199 204 208 207 201 191 173 154 137 123 115 113
179 179 178 179 180 180 180 177 176 178 181 182 181 182 187 192 193 192 189 186 184 183 182 180 179 179 180 180 181 182 182 180 179 177 175 175 178 183 186 188 190 192 192 191 191 193 208 255 293 309 316 317 315 306 278 230 206 197 190 186 182 178 172 165 160 157 157 161 165 169 171 172 174 177 181 185 186 185 180 172 162 152 141 129 122 120
176 176 175 175 178 180 180 176 174 177 183 188 190 192 194 193 191 190 188 187 186 186 184 181 178 177 178 180 182 183 183 181 179 178 177 177 180 185 189 192 194 196 196 196 199 206 223 255 284 298 306 307 304 294 270 227 202 193 192 191 191 188 183 174 165 157 151 148 146 147 149 150 151 153 154 156 157 159 160 158 156 152 145 136 130 126
174 173 173 176 179 181 182 181 182 185 191 194 195 195 195 191 187 186 184 183 184 185 185 183 181 179 178 179 181 183 184 183 180 177 177 179 183 189 193 196 198 201 201 203 207 218 236 256 275 288 297 299 296 285 263 221 194 187 189 194 197 197 193 184 174 163 154 146 141 137 137 138 139 139 140 143 146 149 152 154 155 154 150 144 137 133
179 177 178 181 184 186 188 188 189 191 194 194 194 191 186 183 183 185 184 181 180 181 180 180 181 183 184 183 183 183 184 183 182 180 178 180 185 192 197 199 201 204 208 210 215 225 241 256 270 282 290 293 292 282 252 213 188 180 183 191 198 200 197 190 181 170 159 150 142 137 134 135 136 137 138 141 146 150 154 156 157 157 155 152 146 141
184 184 185 187 188 190 193 193 194 195 194 192 191 189 186 184 184 185 184 181 179 178 180 182 184 188 193 192 188 186 185 183 183 183 181 182 187 193 198 202 204 207 213 216 220 228 242 256 269 279 288 292 286 266 232 203 184 177 179 188 194 196 193 189 182 174 164 154 146 141 138 138 139 139 141 146 151 155 158 161 162 162 161 159 155 150
189 189 190 190 191 192 193 193 195 196 194 190 189 189 190 190 189 186 185 183 181 180 183 188 191 194 193 196 194 191 188 185 184 184 184 185 189 195 199 203 207 211 215 217 221 228 239 253 266 277 286 287 274 247 218 199 185 179 181 188 193 191 185 180 176 172 166 159 152 147 145 143 143 143 147 151 155 159 163 166 169 169 169 167 164 161
193 194 194 195 195 194 192 193 194 194 192 190 188 187 188 190 190 188 187 187 186 186 188 193 197 200 200 200 198 195 191 190 188 186 186 189 192 196 199 203 208 213 216 218 222 228 237 249 262 272 280 276 257 232 211 196 186 182 184 192 195 190 177 170 166 165 164 163 159 154 152 151 150 150 153 157 158 159 162 169 174 177 178 176 174 171
194 196 197 197 195 193 192 196 197 197 195 196 193 190 188 189 189 188 189 190 191 193 194 196 200 204 204 202 199 197 194 191 189 187 189 192 195 198 201 204 208 213 216 220 224 229 236 246 256 265 268 261 243 222 205 194 187 184 188 196 197 187 172 163 157 157 161 164 163 161 159 158 157 157 159 161 161 158 159 165 174 180 184 184 183 182
193 196 201 201 198 195 197 202 204 205 205 203 199 193 190 190 190 190 191 192 193 194 196 199 203 206 207 204 201 199 197 193 188 184 187 192 196 199 202 205 208 213 217 221 225 230 235 243 251 257 255 245 231 214 201 192 187 186 192 199 197 185 169 159 153 152 157 162 164 164 164 163 162 163 163 163 161 159 159 162 169 177 184 188 189 189
196 199 205 208 207 206 208 209 210 212 213 209 202 196 193 192 192 192 193 193 192 194 196 201 204 205 206 207 206 203 201 197 192 187 184 184 192 198 200 203 207 212 216 220 225 229 233 238 243 245 242 233 221 209 197 189 186 187 195 201 195 181 168 158 153 151 156 161 163 163 164 164 166 167 167 167 164 162 161 161 166 172 179 185 188 191
204 205 208 210 212 214 215 215 214 213 214 212 209 206 204 201 199 197 196 194 194 194 195 197 198 199 201 202 203 202 201 199 197 194 187 181 188 195 196 198 203 208 214 219 222 226 230 233 234 233 230 222 214 205 196 188 184 187 194 199 190 175 166 159 155 154 157 159 161 162 164 166 169 172 173 173 171 168 165 163 165 169 174 179 182 185
210 212 213 213 213 214 215 215 213 212 211 212 213 214 214 212 209 205 202 198 195 193 193 193 192 190 191 192 191 192 194 196 196 195 191 188 190 192 192 193 196 201 208 215 218 220 224 225 226 224 218 213 208 202 194 187 184 186 193 192 181 170 165 161 159 158 160 161 162 164 166 169 173 177 180 180 178 176 173 170 169 170 173 176 178 180
215 216 217 218 216 214 212 212 212 209 207 207 208 209 209 209 206 203 200 196 192 190 188 184 177 172 177 180 183 186 191 194 194 193 193 189 187 188 188 190 192 194 199 206 211 212 214 216 218 216 210 206 202 198 191 184 182 186 191 185 174 166 165 165 165 164 164 165 166 168 170 172 176 180 184 186 186 184 182 180 178 178 180 182 182 182
219 220 220 219 217 213 210 208 208 206 204 202 201 201 201 199 196 192 189 187 186 184 179 172 167 168 173 176 179 184 189 192 192 193 194 188 181 181 184 186 189 191 192 196 200 202 205 208 210 208 203 200 197 193 188 182 180 184 189 181 171 166 167 170 171 170 169 169 170 171 173 176 179 183 186 189 189 189 189 189 189 190 192 195 196 193
219 219 219 219 216 213 208 205 202 200 200 200 201 201 199 196 189 183 179 181 183 181 175 173 170 170 174 178 184 187 188 189 190 192 196 192 181 175 179 182 185 187 186 185 186 189 194 199 203 201 196 194 191 188 184 180 179 182 185 179 172 169 171 174 175 175 173 173 173 174 176 178 182 186 189 191 192 192 194 196 198 200 203 208 211 210
216 217 218 219 217 215 210 206 202 199 198 200 202 203 201 197 188 181 179 184 185 183 180 180 176 171 175 185 190 190 188 188 188 191 196 195 183 173 178 179 181 182 177 171 169 173 179 188 194 194 190 189 187 185 182 179 179 181 181 178 175 174 175 177 177 176 175 174 174 175 176 179 183 187 190 192 193 194 197 200 205 208 212 215 218 216
211 213 215 217 217 216 212 209 206 203 202 202 203 205 206 203 197 192 190 190 187 184 185 187 184 178 176 181 187 190 190 189 189 190 193 192 183 176 177 175 177 178 170 161 157 161 170 177 186 189 187 187 186 183 180 179 179 179 179 178 178 178 178 178 176 175 175 175 175 176 178 180 182 185 188 190 191 193 195 200 205 209 212 215 217 214
204 206 208 210 212 212 210 207 205 203 201 201 202 203 206 208 207 205 201 196 190 186 187 188 185 177 170 168 173 187 197 195 191 189 191 186 179 174 174 172 175 177 171 160 150 153 170 176 181 187 190 190 188 185 182 180 179 177 176 176 177 177 177 177 176 176 178 179 179 180 180 180 182 185 187 189 190 191 192 195 196 198 200 204 203 195
195 196 196 198 200 201 200 196 193 190 189 192 195 198 201 204 207 208 206 201 195 191 189 187 183 177 171 166 163 180 203 200 193 189 191 188 180 174 173 171 174 180 180 171 155 141 168 178 181 186 192 195 193 189 186 183 180 178 176 176 177 178 180 181 181 182 183 184 185 186 186 186 187 190 192 192 192 191 191 189 185 183 183 186 182 174
185 186 187 188 188 186 184 181 179 178 180 184 189 194 197 199 202 205 207 205 201 197 193 190 186 183 181 182 185 193 200 198 193 190 191 188 183 179 177 174 174 179 185 186 175 156 155 173 179 184 191 197 197 194 191 188 185 183 182 181 182 183 186 188 188 189 189 190 191 192 193 194 196 198 200 199 197 196 194 190 184 180 179 181 181 179
176 177 178 179 177 175 175 175 175 177 180 184 188 192 194 196 198 201 204 206 205 202 199 195 191 188 188 191 194 199 202 197 193 191 192 189 184 179 180 178 177 178 183 188 185 173 160 163 171 179 187 194 198 197 194 193 192 191 190 190 190 191 193 194 195 195 196 197 198 199 202 205 207 209 209 209 206 204 201 196 191 187 186 186 186 186
170 171 171 171 171 171 173 174 176 179 182 185 188 191 193 195 196 198 200 202 203 204 204 204 199 194 189 189 193 200 205 200 194 192 193 192 188 182 180 179 179 179 180 181 179 172 160 161 165 170 179 189 195 199 197 196 197 197 198 199 199 199 200 200 201 203 204 206 207 210 213 216 217 217 217 216 214 212 208 204 199 196 197 197 195 192
166 167 168 169 170 171 172 175 178 181 184 186 188 191 192 194 195 197 197 199 200 203 205 209 209 205 200 194 194 198 203 201 195 193 194 195 193 187 182 182 183 182 179 178 175 166 155 163 168 170 172 180 189 197 200 201 201 202 203 205 207 208 208 208 208 209 212 216 219 223 226 226 224 222 220 219 217 216 214 210 206 204 204 207 207 202
165 165 168 170 171 172 173 176 179 182 184 187 188 190 192 193 194 196 197 197 199 200 203 206 209 211 211 210 209 209 210 203 195 193 194 197 198 193 186 186 187 187 182 179 176 170 160 160 168 173 173 173 181 193 199 202 204 205 207 208 210 213 214 215 215 216 218 222 227 233 237 236 232 227 222 219 217 217 216 214 211 208 206 209 213 215
166 166 169 172 174 174 175 178 181 184 186 187 189 190 191 192 194 195 196 197 198 199 200 201 203 206 209 214 219 222 219 207 195 193 195 198 201 199 193 192 193 192 188 181 177 173 165 158 161 168 172 174 179 187 194 199 203 206 208 209 211 213 218 221 222 222 224 227 232 238 242 242 239 232 224 219 216 215 215 215 214 211 208 208 212 217
168 169 171 175 177 178 178 180 183 186 189 190 190 190 191 192 193 194 195 196 196 198 198 198 199 199 201 205 210 214 211 200 192 191 194 198 202 204 202 198 197 198 196 191 184 178 169 161 159 165 174 182 186 189 193 196 200 205 208 210 212 215 219 224 226 228 229 231 235 239 242 242 240 235 229 222 218 216 216 216 215 214 213 212 213 216
172 172 173 176 179 181 181 182 184 188 192 193 193 193 193 193 194 194 195 195 195 196 197 197 196 196 197 198 197 194 190 187 187 189 193 197 202 206 207 205 201 200 200 198 194 187 180 174 170 171 174 179 185 192 197 199 202 205 207 210 213 216 220 224 228 230 232 233 235 236 237 238 238 237 234 229 224 221 219 219 218 218 217 216 216 218
175 175 176 179 182 184 185 185 187 190 193 193 194 194 193 192 192 192 193 194 194 195 196 196 196 195 195 194 191 186 181 180 182 186 191 197 201 206 209 210 206 202 198 196 195 193 189 185 182 181 179 177 180 187 195 200 203 206 206 207 211 215 217 221 226 229 230 231 232 232 231 232 234 235 235 233 230 227 225 224 223 222 221 221 220 219
177 176 177 179 183 185 187 189 191 192 193 192 191 190 190 189 189 188 188 189 190 191 193 193 193 192 191 191 189 184 179 178 181 185 190 195 200 204 209 210 209 203 195 192 192 193 193 190 188 186 185 183 184 188 194 199 202 204 204 206 209 212 214 218 221 224 225 225 224 225 225 227 229 230 232 233 234 233 230 228 226 224 224 224 224 224
175 174 175 177 179 182 186 189 190 191 192 190 188 186 186 187 186 184 183 183 183 185 187 188 187 185 182 181 181 180 178 179 181 185 188 193 197 202 205 206 204 199 192 188 188 190 193 194 193 191 189 188 186 186 191 198 200 202 204 206 206 206 209 214 216 217 217 217 217 218 220 223 226 229 231 233 233 231 228 226 225 226 227 228 229 229
174 174 175 177 179 181 184 185 186 187 187 186 184 184 184 185 185 183 182 181 181 181 183 185 186 183 178 174 174 176 177 178 181 184 187 190 193 197 199 199 197 194 190 186 184 185 188 191 193 194 195 197 194 190 188 193 196 198 202 202 198 195 197 206 208 208 209 210 211 213 217 221 225 229 231 232 232 229 227 226 226 227 229 232 234 234
173 174 175 176 178 180 182 182 182 183 183 182 181 180 181 182 184 184 183 182 182 181 182 183 185 185 180 175 173 174 176 178 180 182 185 188 190 192 193 192 191 190 190 186 183 182 182 183 185 186 190 195 198 197 195 193 193 194 196 197 198 201 204 203 199 199 201 204 207 210 214 219 223 227 229 230 230 229 228 228 228 229 231 233 236 238
174 174 175 176 177 177 178 179 180 181 181 181 180 179 179 181 183 185 185 184 183 183 183 184 184 180 174 174 175 174 175 176 178 181 184 186 188 190 190 188 186 186 188 188 187 185 182 181 180 180 182 187 193 197 196 194 192 192 193 195 200 207 215 218 211 203 201 201 204 207 211 215 220 223 226 228 228 228 228 229 229 230 232 234 237 238
175 174 174 176 177 177 177 179 179 179 179 180 180 179 179 181 184 187 189 189 186 184 184 187 185 178 173 174 175 175 174 175 177 179 182 184 187 189 189 188 186 184 185 187 189 190 190 188 185 183 182 184 188 193 197 196 194 192 193 194 198 205 213 220 223 219 212 207 205 206 208 212 216 220 223 226 227 229 230 231 231 231 233 235 236 237
176 175 175 176 177 177 178 178 178 177 177 178 179 179 180 182 184 187 190 191 188 184 181 184 186 184 180 178 177 176 175 175 176 178 179 182 184 186 188 188 187 186 186 187 188 190 193 195 195 194 192 188 187 189 193 196 197 196 197 198 200 204 209 216 221 223 221 218 214 211 212 214 216 219 222 225 228 230 232 233 234 234 233 233 233 234
178 178 177 177 177 176 175 176 176 176 175 176 178 179 180 183 184 186 187 189 188 183 178 178 180 182 182 182 182 181 179 177 176 177 178 180 182 184 185 186 187 187 188 190 191 192 194 197 200 203 204 202 199 196 195 197 199 201 203 205 206 208 210 214 218 222 224 224 222 220 220 219 219 220 222 224 227 230 233 234 234 233 231 230 229 229
182 180 179 178 177 175 174 175 176 176 176 176 176 177 178 182 185 186 186 187 186 182 177 175 175 176 177 179 182 183 182 180 178 178 178 179 181 182 183 184 185 186 187 190 193 196 199 202 206 209 212 212 212 209 206 204 203 204 207 210 213 214 214 214 216 219 223 225 225 226 227 226 226 226 225 225 228 231 234 235 234 232 229 227 226 225
183 182 181 180 178 176 176 176 177 177 176 177 176 176 176 179 182 186 187 187 186 183 179 177 175 174 174 176 178 180 181 179 178 177 179 181 182 182 183 184 184 184 184 186 190 195 199 205 211 216 218 218 217 216 213 210 208 206 206 209 213 217 218 217 215 216 220 223 225 226 227 227 227 226 226 227 230 233 236 236 234 231 228 227 225 223
183 184 183 182 181 179 179 179 178 178 178 178 179 178 177 177 179 182 185 187 186 185 182 179 177 175 175 176 177 179 181 180 177 177 179 182 183 184 184 185 185 183 180 179 183 189 194 201 212 221 222 221 220 219 215 211 207 204 203 205 209 214 217 217 215 214 216 219 222 225 226 226 225 224 224 226 228 231 235 236 234 231 228 228 227 224